When you browse on this site, cookies collect data to enhance your experience and personalize the content and advertising you see.
Visit our Privacy Policy to learn more. By continuing to use the site, you agree to this use of cookies and data.
  • In Switzerland
  • List of Countries
  • For 7 days
  • Water Temperature
  • Weather Map
  • Weather Widgets
  • user-avatar
    Login

    Hourly Weather Lubino

    Today, 20 August, Tuesday

    Time Temperature Precipitation Wind Pressure Humidity
    00:00 +17°C° 0 mm 3 mps 746 mmHg 88%
    01:00 +17°C° 0 mm 2 mps 746 mmHg 88%
    02:00 +17°C° 0 mm 2 mps 746 mmHg 88%
    03:00 +16°C° 0.1 mm 2 mps 746 mmHg 89%
    04:00 +16°C° 0.1 mm 2 mps 746 mmHg 89%
    05:00 +16°C° 0.1 mm 2 mps 747 mmHg 89%
    06:00 +17°C° 0.3 mm 2 mps 747 mmHg 88%
    07:00 +18°C° 0.3 mm 2 mps 747 mmHg 86%
    08:00 +20°C° 0.3 mm 3 mps 747 mmHg 84%
    09:00 +21°C° 0 mm 2 mps 747 mmHg 81%
    10:00 +24°C° 0 mm 2 mps 747 mmHg 78%
    11:00 +25°C° 0 mm 2 mps 748 mmHg 75%
    12:00 +25°C° 0.9 mm 2 mps 748 mmHg 77%
    13:00 +26°C° 0.9 mm 2 mps 748 mmHg 78%
    14:00 +26°C° 0.9 mm 2 mps 748 mmHg 79%
    15:00 +26°C° 0.9 mm 2 mps 748 mmHg 81%
    16:00 +25°C° 0.9 mm 1 mps 748 mmHg 83%
    17:00 +24°C° 0.9 mm 1 mps 748 mmHg 86%
    18:00 +23°C° 0.2 mm 1 mps 748 mmHg 87%
    19:00 +22°C° 0.2 mm 1 mps 748 mmHg 89%
    20:00 +21°C° 0.2 mm 1 mps 748 mmHg 91%
    21:00 +21°C° 0 mm 1 mps 748 mmHg 91%
    22:00 +21°C° 0 mm 1 mps 748 mmHg 92%
    23:00 +18°C° 0 mm 0 mps 748 mmHg 93%

    Tomorrow, 21 August, Wednesday

    Time Temperature Precipitation Wind Pressure Humidity
    00:00 +20°C° 0.1 mm 1 mps 748 mmHg 93%
    01:00 +20°C° 0.1 mm 1 mps 748 mmHg 94%
    02:00 +20°C° 0.1 mm 1 mps 749 mmHg 94%
    03:00 +19°C° 0.7 mm 1 mps 748 mmHg 95%
    04:00 +19°C° 0.7 mm 1 mps 748 mmHg 95%
    05:00 +19°C° 0.7 mm 1 mps 748 mmHg 95%
    06:00 +20°C° 0.2 mm 1 mps 748 mmHg 94%
    07:00 +20°C° 0.2 mm 2 mps 748 mmHg 92%
    08:00 +21°C° 0.2 mm 2 mps 748 mmHg 90%
    09:00 +23°C° 0 mm 2 mps 748 mmHg 85%
    10:00 +24°C° 0 mm 2 mps 748 mmHg 81%
    11:00 +25°C° 0 mm 3 mps 748 mmHg 76%
    12:00 +26°C° 0 mm 3 mps 748 mmHg 72%
    13:00 +27°C° 0 mm 3 mps 748 mmHg 69%
    14:00 +28°C° 0 mm 4 mps 747 mmHg 65%
    15:00 +27°C° 0.3 mm 4 mps 747 mmHg 70%
    16:00 +27°C° 0.3 mm 3 mps 747 mmHg 75%
    17:00 +26°C° 0.3 mm 3 mps 746 mmHg 79%
    18:00 +25°C° 0.2 mm 3 mps 746 mmHg 83%
    19:00 +22°C° 0.2 mm 3 mps 746 mmHg 86%
    20:00 +21°C° 0.2 mm 3 mps 746 mmHg 89%
    21:00 +20°C° 0.1 mm 3 mps 746 mmHg 89%
    22:00 +20°C° 0.1 mm 3 mps 746 mmHg 90%
    23:00 +20°C° 0.1 mm 3 mps 746 mmHg 90%

    Day after tomorrow, 22 August, Thursday

    Time Temperature Precipitation Wind Pressure Humidity
    00:00 +19°C° 0.2 mm 3 mps 746 mmHg 90%
    01:00 +19°C° 0.2 mm 2 mps 746 mmHg 91%
    02:00 +18°C° 0.2 mm 2 mps 747 mmHg 92%
    03:00 +18°C° 0.3 mm 3 mps 747 mmHg 93%
    04:00 +17°C° 0.3 mm 3 mps 747 mmHg 95%
    05:00 +17°C° 0.3 mm 4 mps 747 mmHg 97%
    06:00 +15°C° 0.3 mm 4 mps 747 mmHg 96%
    07:00 +15°C° 0.3 mm 4 mps 748 mmHg 94%
    08:00 +15°C° 0.3 mm 5 mps 748 mmHg 93%
    09:00 +15°C° 0 mm 4 mps 748 mmHg 89%
    10:00 +17°C° 0 mm 4 mps 749 mmHg 85%
    11:00 +18°C° 0 mm 4 mps 749 mmHg 80%
    12:00 +19°C° 0 mm 4 mps 749 mmHg 75%
    13:00 +20°C° 0 mm 4 mps 749 mmHg 70%
    14:00 +22°C° 0 mm 3 mps 749 mmHg 64%
    15:00 +21°C° 0 mm 3 mps 749 mmHg 67%
    16:00 +21°C° 0 mm 3 mps 749 mmHg 70%
    17:00 +21°C° 0 mm 2 mps 749 mmHg 73%
    18:00 +19°C° 0 mm 2 mps 750 mmHg 76%
    19:00 +18°C° 0 mm 2 mps 750 mmHg 80%
    20:00 +16°C° 0 mm 2 mps 750 mmHg 84%
    21:00 +15°C° 0 mm 2 mps 750 mmHg 84%
    22:00 +15°C° 0 mm 2 mps 750 mmHg 84%
    23:00 +14°C° 0 mm 2 mps 751 mmHg 84%

    23 August, Friday

    Time Temperature Precipitation Wind Pressure Humidity
    00:00 +13°C° 0 mm 2 mps 751 mmHg 85%
    01:00 +13°C° 0 mm 2 mps 751 mmHg 86%
    02:00 +12°C° 0 mm 2 mps 751 mmHg 88%
    03:00 +12°C° 0 mm 1 mps 751 mmHg 88%
    04:00 +11°C° 0 mm 1 mps 751 mmHg 89%
    05:00 +11°C° 0 mm 1 mps 751 mmHg 90%
    06:00 +13°C° 0 mm 1 mps 751 mmHg 84%
    07:00 +14°C° 0 mm 1 mps 751 mmHg 79%
    08:00 +16°C° 0 mm 1 mps 751 mmHg 74%
    09:00 +19°C° 0 mm 1 mps 751 mmHg 69%
    10:00 +20°C° 0 mm 1 mps 752 mmHg 64%
    11:00 +22°C° 0 mm 1 mps 752 mmHg 59%
    12:00 +21°C° 0 mm 2 mps 752 mmHg 57%
    13:00 +21°C° 0 mm 2 mps 751 mmHg 55%
    14:00 +23°C° 0 mm 2 mps 751 mmHg 53%
    15:00 +21°C° 0 mm 2 mps 751 mmHg 58%
    16:00 +21°C° 0 mm 2 mps 751 mmHg 64%
    17:00 +21°C° 0 mm 2 mps 751 mmHg 69%
    18:00 +19°C° 0 mm 2 mps 751 mmHg 73%
    19:00 +17°C° 0 mm 2 mps 751 mmHg 78%
    20:00 +15°C° 0 mm 2 mps 751 mmHg 82%
    21:00 +14°C° 0 mm 2 mps 751 mmHg 84%
    22:00 +14°C° 0 mm 1 mps 751 mmHg 87%
    23:00 +13°C° 0 mm 1 mps 752 mmHg 89%

    24 August, Saturday

    Time Temperature Precipitation Wind Pressure Humidity
    00:00 +13°C° 0 mm 1 mps 752 mmHg 90%
    01:00 +13°C° 0 mm 1 mps 752 mmHg 91%
    02:00 +12°C° 0 mm 1 mps 752 mmHg 92%
    03:00 +12°C° 0 mm 1 mps 752 mmHg 92%
    04:00 +12°C° 0 mm 1 mps 752 mmHg 92%
    05:00 +12°C° 0 mm 1 mps 752 mmHg 92%
    06:00 +14°C° 0 mm 1 mps 752 mmHg 87%
    07:00 +15°C° 0 mm 1 mps 752 mmHg 82%
    08:00 +18°C° 0 mm 1 mps 752 mmHg 76%
    09:00 +19°C° 0 mm 1 mps 752 mmHg 71%
    10:00 +20°C° 0 mm 2 mps 752 mmHg 66%
    11:00 +21°C° 0 mm 2 mps 752 mmHg 61%
    12:00 +21°C° 0 mm 2 mps 752 mmHg 60%
    13:00 +23°C° 0 mm 2 mps 752 mmHg 58%
    14:00 +23°C° 0 mm 2 mps 751 mmHg 57%
    15:00 +23°C° 0 mm 2 mps 751 mmHg 62%
    16:00 +21°C° 0 mm 2 mps 751 mmHg 66%
    17:00 +21°C° 0 mm 2 mps 751 mmHg 71%
    18:00 +19°C° 0 mm 2 mps 751 mmHg 77%
    19:00 +18°C° 0 mm 2 mps 750 mmHg 83%
    20:00 +16°C° 0 mm 2 mps 750 mmHg 89%
    21:00 +15°C° 0 mm 2 mps 750 mmHg 90%
    22:00 +15°C° 0 mm 2 mps 750 mmHg 91%
    23:00 +14°C° 0 mm 2 mps 750 mmHg 92%

    25 August, Sunday

    Time Temperature Precipitation Wind Pressure Humidity
    00:00 +14°C° 0 mm 2 mps 750 mmHg 92%
    01:00 +14°C° 0 mm 2 mps 750 mmHg 92%
    02:00 +13°C° 0 mm 2 mps 750 mmHg 92%
    03:00 +13°C° 0 mm 2 mps 750 mmHg 93%
    04:00 +13°C° 0 mm 2 mps 750 mmHg 93%
    05:00 +13°C° 0 mm 2 mps 750 mmHg 93%
    06:00 +14°C° 0 mm 2 mps 750 mmHg 88%
    07:00 +16°C° 0 mm 2 mps 750 mmHg 84%
    08:00 +17°C° 0 mm 2 mps 750 mmHg 79%
    09:00 +19°C° 0 mm 2 mps 749 mmHg 74%
    10:00 +20°C° 0 mm 3 mps 749 mmHg 70%
    11:00 +22°C° 0 mm 3 mps 749 mmHg 65%
    12:00 +22°C° 0 mm 3 mps 749 mmHg 64%
    13:00 +24°C° 0 mm 3 mps 749 mmHg 62%
    14:00 +24°C° 0 mm 3 mps 749 mmHg 61%
    15:00 +24°C° 0 mm 3 mps 749 mmHg 66%
    16:00 +23°C° 0 mm 2 mps 748 mmHg 70%
    17:00 +23°C° 0 mm 2 mps 748 mmHg 75%
    18:00 +20°C° 0 mm 2 mps 748 mmHg 80%
    19:00 +18°C° 0 mm 2 mps 748 mmHg 85%
    20:00 +16°C° 0 mm 1 mps 748 mmHg 90%
    21:00 +16°C° 0 mm 1 mps 748 mmHg 90%
    22:00 +16°C° 0 mm 1 mps 748 mmHg 91%
    23:00 +15°C° 0 mm 1 mps 749 mmHg 92%
    Show more